[[{"header":{"parameterUnit":"m.s-1","parameterCategory":1,"la1":30.2991,"la2":30.254,"lo1":-89.0895,"lo2":-89.0444,"dy":0.0017,"dx":0.0017,"nx":28,"ny":28,"refTime":"2023-07-28T03:00:00:Z","depth":0,"parameterNumber":2,"parameterNumberName":"U-component_of_WINDS"},"data":[0,0,0,0,0,0,0,0,0,0,0,0,0,0,0,0,0,0,0,0,0,0,0,0,0,0,0,0,0,0,0,0,0,0,0,0,0,0,0,0,0,0,0,0,0,0,0,0,0,0,0,0,0,0,0,0,0,0,0.9038,0.9039,0,0.9166,0.9168,0.9169,0.9212,0.9212,0.9211,0.9211,0.9343,0.9347,0.9351,0,0,0,0,0,0,0,0,0,0,0,0,0,0.883,0.8834,0.9038,0.904,0.9041,0.9166,0.9168,0.9169,0.9212,0.9212,0.9211,0.921,0.9342,0.9347,0.9352,0,0,0,0,0,0,0,0,0,0,0,0,0,0.8936,0.8835,0.9038,0.9078,0.9082,0.9165,0.9168,0.917,0.9212,0.9212,0.9211,0.921,0.934,0.9346,0.9352,0.9405,0,0,0.9371,0.9373,0,0,0,0,0,0,0,0,0.893,0.8943,0.907,0.9075,0.9081,0.9172,0.9143,0.9249,0.9213,0.9163,0.9211,0.921,0.9287,0.9298,0.9323,0.9412,0.9417,0.9371,0.9375,0.9377,0.9379,0,0,0,0,0,0,0,0.8922,0.8938,0.9089,0.9072,0.9078,0.9089,0.9103,0.9163,0.9228,0.9167,0.9171,0.9185,0.929,0.9317,0.9327,0.9419,0.9371,0.9376,0.938,0.9383,0.9555,0.9556,0,0,0,0,0,0,0.8908,0.8932,0.9085,0.9093,0.9002,0.9093,0.9109,0.9144,0.9228,0.9239,0.9186,0.9187,0.9307,0.932,0.9332,0.9398,0.9377,0.9383,0.9387,0.9554,0.9556,0.9557,0,0,0,0,0,0,0.8904,0.8921,0.908,0.9013,0.9034,0.9098,0.9136,0.9147,0.9174,0.9241,0.9253,0.9202,0.9307,0.9323,0.9386,0.9403,0.9386,0.9391,0.9553,0.9555,0.9556,0.9532,0,0,0,0,0,0,0.8897,0.892,0.8941,0.9013,0.9037,0.9132,0.9137,0.915,0.9184,0.9187,0.926,0.9271,0.9308,0.9377,0.9392,0.9411,0.9396,0.9552,0.9554,0.9556,0.9531,0.9532,0.9533,0,0,0,0,0,0.889,0.893,0.8942,0.896,0.9065,0.9133,0.9147,0.9188,0.9186,0.9207,0.925,0.9269,0.9399,0.9383,0.9401,0.9422,0.9551,0.9553,0.9556,0.9531,0.9532,0.9533,0,0,0,0,0,0,0.8858,0.894,0.8954,0.9018,0.9068,0.914,0.9169,0.9188,0.924,0.924,0.9289,0.9305,0.9364,0.9399,0.938,0.9476,0.9476,0.9482,0.9451,0.9453,0.9454,0.9444,0.9401,0,0,0,0,0,0.8859,0.8907,0.8976,0.9026,0.905,0.9104,0.9136,0.9163,0.9217,0.9238,0.9286,0.9337,0.939,0.9423,0.9475,0.9537,0.9552,0.956,0.956,0.9561,0.9565,0.9598,0.9602,0.9564,0.9564,0.9564,0,0,0.886,0.8911,0.8938,0.902,0.9062,0.9111,0.9122,0.9173,0.921,0.9246,0.9308,0.9344,0.9405,0.9467,0.9497,0.9498,0.9579,0.9563,0.9563,0.9568,0.9601,0.9604,0.9608,0.9565,0.9565,0.9565,0,0,0.8888,0.8931,0.8977,0.9018,0.9081,0.9116,0.9127,0.9196,0.9221,0.9284,0.9311,0.9355,0.9445,0.9486,0.9519,0.9559,0.9578,0.9575,0.9579,0.9611,0.9614,0.9617,0.963,0.9635,0.9579,0.9579,0.9579,0,0.8882,0.8956,0.8998,0.9047,0.9082,0.9116,0.9162,0.92,0.9276,0.9299,0.93,0.9411,0.9455,0.9526,0.9535,0.9561,0.9574,0.9567,0.961,0.9614,0.9617,0.963,0.9635,0.9578,0.9578,0.9578,0.9579,0,0.8945,0.8996,0.9025,0.9097,0.9135,0.9182,0.9231,0.9264,0.9287,0.9323,0.9385,0.9438,0.95,0.9519,0.9543,0.9593,0.9592,0.9601,0.9601,0.9619,0.9632,0.9638,0.9577,0.9577,0.9578,0.9578,0,0,0.8958,0.905,0.906,0.9092,0.9163,0.9203,0.9251,0.9311,0.9338,0.9389,0.9431,0.9504,0.9512,0.9549,0.9578,0.9605,0.9632,0.9611,0.9613,0.9612,0.9689,0.9682,0.9687,0.9645,0.9646,0.9647,0.9684,0,0.8994,0.9081,0.9119,0.9189,0.9236,0.9267,0.9309,0.9356,0.939,0.9435,0.9472,0.9523,0.953,0.9553,0.9581,0.9623,0.9648,0.9621,0.9683,0.9685,0.9667,0.9694,0.9687,0.9719,0.9689,0.969,0.9691,0,0.9048,0.9098,0.9172,0.9235,0.9256,0.9293,0.935,0.9392,0.9446,0.9468,0.9508,0.9535,0.9586,0.9582,0.9653,0.9633,0.9661,0.9684,0.9687,0.9694,0.9689,0.9702,0.9731,0.9735,0.97,0.9699,0.9698,0,0.9048,0.9134,0.9189,0.9216,0.9291,0.9316,0.9348,0.9401,0.9434,0.9484,0.9506,0.9561,0.9591,0.9633,0.9674,0.9667,0.974,0.974,0.9759,0.9758,0.9774,0.9772,0.9807,0.9792,0.9792,0.9791,0.9791,0,0.9084,0.9128,0.919,0.9224,0.9273,0.9316,0.9364,0.9399,0.9445,0.9486,0.9517,0.9554,0.9606,0.9649,0.9681,0.9734,0.9748,0.9767,0.9775,0.9764,0.9761,0.9783,0.9782,0.9793,0.9793,0.9792,0.9792,0,0.9093,0.9136,0.9198,0.9264,0.9281,0.9314,0.937,0.9404,0.9439,0.949,0.9504,0.9558,0.9611,0.9655,0.9725,0.9747,0.9801,0.9811,0.9783,0.9787,0.9803,0.9801,0.9853,0.9862,0.9841,0.9841,0.9841,0,0.9113,0.9147,0.9216,0.9245,0.9277,0.9323,0.9357,0.94,0.9433,0.9496,0.9521,0.9576,0.9622,0.9705,0.9751,0.9804,0.9815,0.9829,0.9823,0.981,0.9814,0.9811,0.9814,0.983,0.983,0.983,0.983,0,0.9143,0.9162,0.9209,0.9263,0.9302,0.9346,0.9392,0.9414,0.9465,0.9501,0.9554,0.959,0.966,0.9714,0.9771,0.9805,0.9825,0.9831,0.9838,0.9828,0.981,0.9819,0.9783,0.983,0.983,0.983,0.983,0.983,0.9158,0.9189,0.9242,0.9292,0.9331,0.9372,0.9406,0.9444,0.949,0.955,0.9572,0.9627,0.9678,0.9758,0.9791,0.9834,0.9837,0.9847,0.985,0.9852,0.985,0.9802,0.9845,0.9845,0.9845,0.9845,0.9845,0,0.9189,0.9224,0.927,0.9332,0.9371,0.9387,0.9437,0.9469,0.9517,0.9562,0.9607,0.9668,0.9719,0.9768,0.9822,0.9847,0.9858,0.986,0.9858,0.9865,0.9845,0.9833,0.985,0.985,0.985,0.985,0.985,0.985,0.921,0.9263,0.9288,0.936,0.9395,0.9449,0.9476,0.9514,0.955,0.9617,0.9659,0.9691,0.9737,0.9795,0.9842,0.9855,0.9873,0.9873,0.9888,0.9868,0.9867,0.9866,0.9855,0.9876,0.9876,0.9905,0.9905,0.9905]},{"header":{"parameterUnit":"m.s-1","parameterCategory":1,"la1":30.2991,"la2":30.254,"lo1":-89.0895,"lo2":-89.0444,"dy":0.0017,"dx":0.0017,"nx":28,"ny":28,"refTime":"2023-07-28T03:00:00:Z","depth":0,"parameterNumber":3,"parameterNumberName":"V-component_of_WINDS"},"data":[0,0,0,0,0,0,0,0,0,0,0,0,0,0,0,0,0,0,0,0,0,0,0,0,0,0,0,0,0,0,0,0,0,0,0,0,0,0,0,0,0,0,0,0,0,0,0,0,0,0,0,0,0,0,0,0,0,0,4.291,4.2909,0,4.2875,4.2875,4.2874,4.2882,4.2882,4.2883,4.2884,4.2841,4.2839,4.2837,0,0,0,0,0,0,0,0,0,0,0,0,0,4.2975,4.2974,4.291,4.2909,4.2909,4.2875,4.2875,4.2874,4.2882,4.2882,4.2883,4.2884,4.2841,4.2839,4.2837,0,0,0,0,0,0,0,0,0,0,0,0,0,4.2944,4.2973,4.291,4.2909,4.2908,4.2875,4.2875,4.2874,4.2881,4.2882,4.2883,4.2884,4.2842,4.2839,4.2837,4.2801,0,0,4.2829,4.2828,0,0,0,0,0,0,0,0,4.2946,4.2942,4.2909,4.2909,4.2908,4.2884,4.2882,4.2849,4.2881,4.2891,4.2884,4.2885,4.2854,4.285,4.2841,4.2799,4.2797,4.2829,4.2827,4.2826,4.2825,0,0,0,0,0,0,0,4.2948,4.2943,4.2896,4.2909,4.2908,4.2907,4.2904,4.2876,4.2867,4.2891,4.2891,4.2887,4.2854,4.2844,4.284,4.2796,4.2829,4.2826,4.2825,4.2824,4.272,4.2719,0,0,0,0,0,0,4.2952,4.2945,4.2897,4.2895,4.293,4.2906,4.2902,4.2891,4.2868,4.2865,4.2886,4.2888,4.2848,4.2843,4.2839,4.2794,4.2826,4.2823,4.2822,4.2721,4.272,4.2718,0,0,0,0,0,0,4.2953,4.2947,4.2898,4.292,4.2914,4.2903,4.2891,4.2889,4.288,4.2865,4.2862,4.2879,4.2849,4.2843,4.281,4.2792,4.2822,4.282,4.2722,4.2721,4.2719,4.2704,0,0,0,0,0,0,4.2955,4.2948,4.2936,4.292,4.2913,4.2872,4.289,4.2888,4.2876,4.2877,4.2857,4.2854,4.2849,4.2814,4.2808,4.2789,4.2818,4.2724,4.2722,4.272,4.2706,4.2702,4.2698,0,0,0,0,0,4.2957,4.2931,4.2935,4.2929,4.2898,4.2871,4.2867,4.2864,4.2875,4.2861,4.2851,4.2855,4.2796,4.2811,4.2803,4.2784,4.2725,4.2722,4.272,4.2707,4.2703,4.2698,0,0,0,0,0,0,4.2943,4.2929,4.2933,4.2902,4.2888,4.2873,4.2856,4.2859,4.284,4.2842,4.2836,4.2831,4.2798,4.2788,4.2805,4.2747,4.2761,4.2757,4.2755,4.275,4.2746,4.2748,4.2816,0,0,0,0,0,4.2937,4.2919,4.2907,4.288,4.2874,4.2866,4.2854,4.2853,4.2838,4.2831,4.2819,4.2801,4.2779,4.2764,4.2743,4.2705,4.2699,4.2688,4.2684,4.2681,4.2677,4.2654,4.2648,4.271,4.271,4.271,0,0,4.2922,4.2913,4.2901,4.2877,4.2867,4.2846,4.2861,4.2838,4.2822,4.2827,4.2796,4.2786,4.2766,4.2731,4.2714,4.2721,4.2659,4.2678,4.2675,4.2673,4.2651,4.2645,4.264,4.2708,4.2708,4.2708,0,0,4.2886,4.2878,4.2855,4.2844,4.2828,4.2823,4.2817,4.2802,4.2796,4.2766,4.2768,4.2748,4.271,4.2695,4.2682,4.264,4.2642,4.2633,4.2613,4.2591,4.2586,4.2581,4.2565,4.2559,4.2629,4.2629,4.2629,0,4.287,4.2841,4.2841,4.2819,4.2807,4.2813,4.2788,4.2777,4.2753,4.2744,4.2753,4.2705,4.2692,4.2652,4.2642,4.2632,4.2623,4.2635,4.2587,4.2583,4.2578,4.2562,4.2556,4.2628,4.2628,4.2628,4.2629,0,4.2821,4.2801,4.2784,4.2764,4.275,4.2726,4.2721,4.2706,4.2706,4.27,4.2667,4.2652,4.2627,4.2618,4.2617,4.2577,4.2582,4.2589,4.2603,4.2572,4.2556,4.255,4.2627,4.2627,4.2627,4.2628,0,0,4.2774,4.2755,4.2748,4.2739,4.2722,4.2705,4.268,4.2659,4.2645,4.2629,4.2607,4.2574,4.2581,4.2567,4.2564,4.2545,4.251,4.2554,4.2553,4.2545,4.2463,4.2457,4.245,4.2512,4.2511,4.251,4.2464,0,4.2735,4.2694,4.2694,4.2655,4.2635,4.2641,4.2619,4.2605,4.2598,4.2578,4.2569,4.2546,4.2557,4.2548,4.253,4.2518,4.2493,4.2522,4.2488,4.2487,4.2492,4.2442,4.2436,4.2394,4.2459,4.2458,4.2457,0,4.2683,4.2668,4.2628,4.2614,4.2605,4.2586,4.2565,4.2547,4.253,4.2526,4.2511,4.251,4.2482,4.2499,4.2459,4.2478,4.2464,4.2457,4.2455,4.245,4.2469,4.2434,4.238,4.2373,4.2448,4.2448,4.2449,0,4.2651,4.262,4.2592,4.2584,4.2566,4.2552,4.2544,4.2528,4.2515,4.2496,4.2486,4.2463,4.245,4.2431,4.2424,4.2437,4.2383,4.24,4.2377,4.2377,4.2364,4.2364,4.2305,4.2358,4.2358,4.2358,4.2358,0,4.2606,4.2581,4.2577,4.256,4.2531,4.253,4.2501,4.2493,4.2479,4.2458,4.246,4.244,4.2433,4.241,4.2404,4.2371,4.2365,4.2359,4.2357,4.2358,4.2358,4.2347,4.2349,4.2356,4.2357,4.2357,4.2357,0,4.2565,4.2561,4.2531,4.2517,4.2513,4.2493,4.248,4.2461,4.2455,4.2429,4.2422,4.2411,4.2385,4.2377,4.2344,4.234,4.23,4.2302,4.2307,4.2306,4.2283,4.2285,4.2213,4.2203,4.2264,4.2263,4.2263,0,4.2536,4.2517,4.2502,4.249,4.2481,4.2461,4.2447,4.2445,4.243,4.2409,4.2393,4.2368,4.2347,4.2305,4.2292,4.2267,4.2267,4.2243,4.2263,4.2263,4.2264,4.2265,4.2262,4.2239,4.2239,4.2238,4.2238,0,4.2484,4.2484,4.2466,4.2447,4.2432,4.2416,4.2401,4.239,4.2384,4.2367,4.2342,4.2327,4.2295,4.2268,4.2243,4.2231,4.2232,4.2232,4.2225,4.2224,4.2227,4.2224,4.2295,4.2233,4.2234,4.2234,4.2234,4.2234,4.2447,4.243,4.2417,4.2396,4.2385,4.2371,4.2353,4.2346,4.2325,4.2301,4.23,4.2271,4.2253,4.2219,4.2206,4.2182,4.2189,4.2179,4.2176,4.2173,4.2171,4.2233,4.2178,4.2178,4.2178,4.2178,4.2178,0,4.2394,4.2386,4.2368,4.2347,4.2331,4.2337,4.232,4.2305,4.2281,4.2265,4.2246,4.2215,4.219,4.2176,4.215,4.2133,4.2133,4.2126,4.2126,4.2123,4.2167,4.2175,4.2127,4.2127,4.2127,4.2127,4.2127,4.2127,4.2365,4.2336,4.2334,4.2299,4.229,4.2265,4.2254,4.224,4.2228,4.2195,4.2175,4.2167,4.215,4.2123,4.2099,4.2095,4.2085,4.2077,4.2073,4.2115,4.212,4.2125,4.2132,4.2075,4.2075,4.2031,4.203,4.203]}]]